When you browse on this site, cookies collect data to enhance your experience and personalize the content and advertising you see.
Visit our Privacy Policy to learn more. By continuing to use the site, you agree to this use of cookies and data.
  • In Hungary
  • List of Countries
  • For 7 days
  • Water Temperature
  • Satellite Maps
  • Weather Map
  • News
  • Weather Widgets
  • user-avatar
    Login

    Hourly Weather Klokoczyn

    Today, 25 May, Saturday

    Time Temperature Precipitation Wind Pressure Humidity
    00:00 +11°C° 0 mm 1 mps 740 mmHg 91%
    01:00 +11°C° 0 mm 1 mps 740 mmHg 90%
    02:00 +11°C° 0 mm 1 mps 740 mmHg 91%
    03:00 +11°C° 0 mm 1 mps 740 mmHg 91%
    04:00 +10°C° 0 mm 1 mps 740 mmHg 91%
    05:00 +12°C° 0 mm 2 mps 740 mmHg 85%
    06:00 +14°C° 0 mm 2 mps 740 mmHg 79%
    07:00 +16°C° 0 mm 2 mps 740 mmHg 70%
    08:00 +17°C° 0 mm 2 mps 740 mmHg 64%
    09:00 +19°C° 0 mm 2 mps 741 mmHg 57%
    10:00 +20°C° 0 mm 2 mps 741 mmHg 50%
    11:00 +21°C° 0 mm 2 mps 741 mmHg 50%
    12:00 +21°C° 0 mm 2 mps 740 mmHg 49%
    13:00 +23°C° 0 mm 2 mps 740 mmHg 48%
    14:00 +23°C° 0 mm 2 mps 740 mmHg 50%
    15:00 +23°C° 0 mm 2 mps 740 mmHg 52%
    16:00 +23°C° 0 mm 2 mps 740 mmHg 53%
    17:00 +20°C° 0 mm 2 mps 740 mmHg 60%
    18:00 +20°C° 0 mm 1 mps 740 mmHg 66%
    19:00 +18°C° 0 mm 1 mps 740 mmHg 73%
    20:00 +16°C° 0 mm 1 mps 740 mmHg 77%
    21:00 +15°C° 0 mm 1 mps 741 mmHg 80%
    22:00 +14°C° 0 mm 1 mps 741 mmHg 84%
    23:00 +14°C° 0 mm 1 mps 741 mmHg 85%

    Tomorrow, 26 May, Sunday

    Time Temperature Precipitation Wind Pressure Humidity
    00:00 +13°C° 0 mm 1 mps 741 mmHg 86%
    01:00 +13°C° 0 mm 1 mps 741 mmHg 87%
    02:00 +13°C° 0 mm 1 mps 741 mmHg 87%
    03:00 +13°C° 0 mm 1 mps 741 mmHg 87%
    04:00 +12°C° 0 mm 1 mps 741 mmHg 88%
    05:00 +14°C° 0 mm 1 mps 741 mmHg 84%
    06:00 +16°C° 0 mm 1 mps 741 mmHg 80%
    07:00 +18°C° 0 mm 1 mps 742 mmHg 76%
    08:00 +19°C° 0.1 mm 2 mps 741 mmHg 73%
    09:00 +20°C° 0.1 mm 2 mps 741 mmHg 69%
    10:00 +21°C° 0.1 mm 2 mps 741 mmHg 66%
    11:00 +22°C° 0.2 mm 3 mps 741 mmHg 64%
    12:00 +22°C° 0.2 mm 3 mps 741 mmHg 62%
    13:00 +24°C° 0.2 mm 3 mps 741 mmHg 61%
    14:00 +24°C° 0.6 mm 3 mps 741 mmHg 64%
    15:00 +22°C° 0.6 mm 3 mps 740 mmHg 68%
    16:00 +22°C° 0.6 mm 3 mps 740 mmHg 71%
    17:00 +21°C° 0.6 mm 3 mps 740 mmHg 76%
    18:00 +19°C° 0.6 mm 2 mps 740 mmHg 81%
    19:00 +18°C° 0.6 mm 2 mps 740 mmHg 85%
    20:00 +17°C° 0.1 mm 2 mps 740 mmHg 87%
    21:00 +16°C° 0.1 mm 2 mps 740 mmHg 89%
    22:00 +16°C° 0.1 mm 2 mps 741 mmHg 91%
    23:00 +15°C° 0 mm 2 mps 741 mmHg 91%

    Day after tomorrow, 27 May, Monday

    Time Temperature Precipitation Wind Pressure Humidity
    00:00 +15°C° 0 mm 2 mps 740 mmHg 91%
    01:00 +15°C° 0 mm 2 mps 740 mmHg 92%
    02:00 +14°C° 0 mm 2 mps 740 mmHg 92%
    03:00 +14°C° 0 mm 2 mps 740 mmHg 91%
    04:00 +14°C° 0 mm 2 mps 740 mmHg 91%
    05:00 +16°C° 0 mm 2 mps 740 mmHg 87%
    06:00 +18°C° 0 mm 2 mps 740 mmHg 84%
    07:00 +19°C° 0 mm 2 mps 740 mmHg 80%
    08:00 +21°C° 0.3 mm 2 mps 740 mmHg 75%
    09:00 +22°C° 0.3 mm 3 mps 740 mmHg 71%
    10:00 +24°C° 0.3 mm 3 mps 740 mmHg 66%
    11:00 +25°C° 0.7 mm 4 mps 740 mmHg 66%
    12:00 +25°C° 0.7 mm 4 mps 740 mmHg 65%
    13:00 +25°C° 0.7 mm 4 mps 739 mmHg 65%
    14:00 +24°C° 0.2 mm 3 mps 739 mmHg 69%
    15:00 +24°C° 0.2 mm 3 mps 739 mmHg 72%
    16:00 +23°C° 0.2 mm 2 mps 738 mmHg 76%
    17:00 +21°C° 0 mm 2 mps 738 mmHg 77%
    18:00 +21°C° 0 mm 1 mps 738 mmHg 79%
    19:00 +20°C° 0 mm 1 mps 738 mmHg 81%
    20:00 +19°C° 0 mm 1 mps 738 mmHg 83%
    21:00 +19°C° 0 mm 1 mps 738 mmHg 86%
    22:00 +18°C° 0 mm 1 mps 738 mmHg 88%
    23:00 +18°C° 0.3 mm 1 mps 738 mmHg 89%

    28 May, Tuesday

    Time Temperature Precipitation Wind Pressure Humidity
    00:00 +18°C° 0.3 mm 1 mps 737 mmHg 90%
    01:00 +18°C° 0.3 mm 1 mps 737 mmHg 91%
    02:00 +18°C° 0.4 mm 1 mps 737 mmHg 92%
    03:00 +18°C° 0.4 mm 1 mps 737 mmHg 93%
    04:00 +18°C° 0.4 mm 1 mps 736 mmHg 94%
    05:00 +19°C° 0 mm 1 mps 736 mmHg 91%
    06:00 +20°C° 0 mm 1 mps 736 mmHg 87%
    07:00 +21°C° 0 mm 1 mps 736 mmHg 84%
    08:00 +23°C° 0.1 mm 2 mps 735 mmHg 76%
    09:00 +24°C° 0.1 mm 2 mps 735 mmHg 67%
    10:00 +25°C° 0.1 mm 3 mps 735 mmHg 59%
    11:00 +26°C° 0 mm 3 mps 735 mmHg 56%
    12:00 +27°C° 0 mm 3 mps 734 mmHg 52%
    13:00 +27°C° 0 mm 3 mps 734 mmHg 49%
    14:00 +25°C° 0.6 mm 3 mps 733 mmHg 61%
    15:00 +22°C° 0.6 mm 3 mps 733 mmHg 73%
    16:00 +20°C° 0.6 mm 3 mps 733 mmHg 85%
    17:00 +20°C° 0 mm 2 mps 733 mmHg 84%
    18:00 +20°C° 0 mm 1 mps 732 mmHg 84%
    19:00 +20°C° 0 mm 1 mps 732 mmHg 84%
    20:00 +19°C° 0.6 mm 1 mps 732 mmHg 86%
    21:00 +18°C° 0.6 mm 1 mps 733 mmHg 87%
    22:00 +18°C° 0.6 mm 1 mps 733 mmHg 89%
    23:00 +16°C° 0.1 mm 2 mps 733 mmHg 91%

    29 May, Wednesday

    Time Temperature Precipitation Wind Pressure Humidity
    00:00 +15°C° 0.1 mm 2 mps 733 mmHg 94%
    01:00 +15°C° 0.1 mm 2 mps 733 mmHg 96%
    02:00 +15°C° 0 mm 2 mps 733 mmHg 96%
    03:00 +13°C° 0 mm 3 mps 734 mmHg 95%
    04:00 +13°C° 0 mm 3 mps 734 mmHg 95%
    05:00 +13°C° 0.1 mm 3 mps 734 mmHg 95%
    06:00 +12°C° 0.1 mm 3 mps 735 mmHg 94%
    07:00 +12°C° 0.1 mm 3 mps 735 mmHg 93%
    08:00 +12°C° 0.2 mm 3 mps 736 mmHg 93%
    09:00 +12°C° 0.2 mm 4 mps 736 mmHg 92%
    10:00 +12°C° 0.2 mm 4 mps 737 mmHg 91%
    11:00 +12°C° 0.2 mm 4 mps 738 mmHg 90%
    12:00 +12°C° 0.2 mm 4 mps 738 mmHg 90%
    13:00 +12°C° 0.2 mm 4 mps 739 mmHg 89%
    14:00 +12°C° 0.1 mm 3 mps 739 mmHg 88%
    15:00 +12°C° 0.1 mm 3 mps 739 mmHg 88%
    16:00 +12°C° 0.1 mm 3 mps 740 mmHg 87%
    17:00 +12°C° 0.1 mm 3 mps 740 mmHg 88%
    18:00 +11°C° 0.1 mm 3 mps 741 mmHg 88%
    19:00 +11°C° 0.1 mm 3 mps 741 mmHg 89%
    20:00 +11°C° 0.7 mm 3 mps 741 mmHg 90%
    21:00 +10°C° 0.7 mm 2 mps 742 mmHg 92%
    22:00 +10°C° 0.7 mm 2 mps 742 mmHg 93%
    23:00 +10°C° 0.7 mm 2 mps 743 mmHg 92%

    30 May, Thursday

    Time Temperature Precipitation Wind Pressure Humidity
    00:00 +9°C° 0.7 mm 2 mps 743 mmHg 92%
    01:00 +9°C° 0.7 mm 2 mps 744 mmHg 91%
    02:00 +9°C° 0.6 mm 1 mps 744 mmHg 91%
    03:00 +9°C° 0.6 mm 1 mps 745 mmHg 91%
    04:00 +8°C° 0.6 mm 1 mps 745 mmHg 91%
    05:00 +9°C° 1.1 mm 1 mps 746 mmHg 91%
    06:00 +9°C° 1.1 mm 1 mps 746 mmHg 91%
    07:00 +9°C° 1.1 mm 1 mps 747 mmHg 91%
    08:00 +9°C° 0.3 mm 1 mps 747 mmHg 89%
    09:00 +10°C° 0.3 mm 1 mps 747 mmHg 86%
    10:00 +10°C° 0.3 mm 1 mps 747 mmHg 84%
    11:00 +11°C° 0.1 mm 1 mps 748 mmHg 81%
    12:00 +12°C° 0.1 mm 1 mps 748 mmHg 78%
    13:00 +12°C° 0.1 mm 2 mps 748 mmHg 74%
    14:00 +13°C° 0 mm 2 mps 748 mmHg 71%
    15:00 +14°C° 0 mm 2 mps 747 mmHg 68%
    16:00 +14°C° 0 mm 2 mps 747 mmHg 65%
    17:00 +13°C° 0 mm 1 mps 747 mmHg 69%
    18:00 +13°C° 0 mm 1 mps 747 mmHg 73%
    19:00 +12°C° 0 mm 1 mps 747 mmHg 77%
    20:00 +11°C° 0 mm 1 mps 747 mmHg 80%
    21:00 +10°C° 0 mm 1 mps 747 mmHg 83%
    22:00 +9°C° 0 mm 1 mps 747 mmHg 85%
    23:00 +8°C° 0 mm 1 mps 746 mmHg 86%
    Show more